Flag for Spain Weather past 2 weeks in Santa Cruz de Tenerife, Canary Islands, Spain

Now
55 °F

Passing clouds.


Feels Like: 55 °F
Forecast: 67 / 71 °F
Wind: 3 mph from Northwest

Location: Tenerife / Los Rodeos


UV Index: 7 (High)

Visibility: 6 mi


Pressure: 30.04 "Hg

Humidity: 100%

Dew point: 55 °F

Location of Santa Cruz de TenerifeLocation

Historic Weather in Santa Cruz de Tenerife

°F

Santa Cruz de Tenerife temperature yesterday

Maximum temperature yesterday: 66 °F (at 3:30 PM)
Minimum temperature yesterday: 52 °F (at 7:30 AM)
Average temperature yesterday: 60 °F

Past Weeks' High & Low Weather Summary

 TemperatureHumidityPressure
High70 °F (Apr 7, 4:00 PM)100% (Apr 4, 6:30 AM)30.24 "Hg (Apr 4, 6:30 AM)
Low46 °F (Apr 5, 6:30 AM)15% (Apr 5, 10:30 AM)29.92 "Hg (Apr 13, 6:00 AM)
Average60 °F82%30.06 "Hg
* Reported Apr 3 11:00 PM — Apr 18 11:00 PM, Santa Cruz de Tenerife, Weather by CustomWeather, © 2014

Note: Actual official high and low records may vary slightly from our data, if they occured in-between our weather recording intervals... More about our weather records

Advertising

Historic Weather Conditions — Data for Previous 24 hours

 ConditionsComfort  
Time TempWeatherWind HumidityBarometerVisibility
11:00 PM
Apr 18
57 °FPassing clouds.2 mph94%30.12 "HgN/A
10:30 PM57 °FPassing clouds.5 mph94%30.12 "HgN/A
10:00 PM57 °FPassing clouds.12 mph94%30.09 "HgN/A
9:30 PM59 °FScattered clouds.15 mph88%30.12 "Hg6 mi
9:00 PM59 °FPartly sunny.1 mph88%30.12 "Hg6 mi
8:30 PM59 °FPartly sunny.2 mph94%30.09 "HgN/A
8:00 PM59 °FPartly sunny.3 mph82%30.09 "HgN/A
7:30 PM61 °FPartly sunny.8 mph83%30.09 "HgN/A
7:00 PM63 °FPartly sunny.8 mph77%30.09 "HgN/A
6:30 PM63 °FPartly sunny.6 mph77%30.07 "HgN/A
6:00 PM64 °FPartly sunny.12 mph78%30.07 "HgN/A
5:30 PM64 °FScattered clouds.1 mph78%30.09 "HgN/A
5:00 PM64 °FScattered clouds.8 mph73%30.07 "HgN/A
4:30 PM64 °FScattered clouds.8 mph73%30.09 "HgN/A
4:00 PM64 °FScattered clouds.2 mph68%30.09 "HgN/A
3:30 PM66 °FScattered clouds.3 mph68%30.09 "HgN/A
3:00 PM64 °FPassing clouds.5 mph73%30.09 "HgN/A
2:30 PM64 °FPassing clouds.8 mph68%30.09 "HgN/A
2:00 PM64 °FPassing clouds.8 mph78%30.09 "HgN/A
1:30 PM64 °FScattered clouds.7 mph78%30.12 "HgN/A
1:00 PM64 °FScattered clouds.7 mph73%30.12 "HgN/A
12:30 PM63 °FScattered clouds.7 mph83%30.12 "HgN/A
12:00 PM63 °FScattered clouds.8 mph83%30.12 "HgN/A
11:30 AM63 °FScattered clouds.3 mph77%30.12 "HgN/A
11:00 AM63 °FPassing clouds.3 mph73%30.12 "HgN/A
10:30 AM61 °FPassing clouds.3 mph77%30.12 "HgN/A
10:00 AM59 °FPassing clouds.1 mph82%30.12 "HgN/A
9:30 AM57 °FPassing clouds.7 mph88%30.12 "HgN/A
9:00 AM55 °FPassing clouds.6 mph94%30.09 "HgN/A
8:30 AM55 °FPassing clouds.6 mph94%30.09 "HgN/A
8:00 AM54 °FPassing clouds.7 mph94%30.09 "HgN/A
7:30 AM52 °FPassing clouds.8 mph100%30.09 "HgN/A
7:00 AM54 °FPassing clouds.9 mph94%30.09 "HgN/A
6:30 AM54 °FPassing clouds.8 mph94%30.09 "HgN/A
6:00 AM54 °FPassing clouds.9 mph94%30.09 "HgN/A
Weather by CustomWeather, © 2014

See weather overview